Location: Oriwa
(40.7500°S, 175.3333°E)
Time: 14:10:59
(UTC+00:00)

Cosmos 1953 - Pass Details

Date: 03 February 2023
Orbit: 527 x 548 km, 82.5° (Epoch: 30 March)

Event Time Altitude Azimuth Distance (km) Brightness Sun altitude
Rises 15:49:06 0° 187° (S) 2,770 6.4 -16.9°
Reaches altitude 10° 15:51:18 10° 185° (S) 1,864 5.5 -16.5°
Maximum altitude 15:55:24 76° 99° (E) 579 2.5 -16.0°
Drops below altitude 10° 15:59:26 10° 12° (NNE) 1,824 4.7 -15.4°
Enters shadow 16:00:15 - 11° (N) 2,157 5.1 -15.2°
